Flag for Brazil Weather past 2 weeks in Rio de Janeiro, Rio de Janeiro, Brazil

Now
68 °F

Clear.


Feels Like: 68 °F
Forecast: 66 / 79 °F
Wind: 3 mph from North

Location: Rio De Janeiro Airport

Current Time: Jul 8, 2015 at 4:40:03 AM

Latest Report: Jul 8, 2015 at 4:00 AM


Visibility: 10 mi

Pressure: 29.98 "Hg

Humidity: 88%

Dew point: 64 °F

Location of Rio de JaneiroLocation

Historic Weather in Rio de Janeiro — Graph

°F

Rio de Janeiro temperature yesterday

Maximum temperature yesterday: 77 °F (at 2:00 PM)
Minimum temperature yesterday: 66 °F (at 5:00 AM)
Average temperature yesterday: 71 °F

Past Weeks' High & Low Weather Summary

 TemperatureHumidityPressure
High82 °F (Jun 23, 2:00 PM)100% (Jun 23, 6:00 AM)30.48 "Hg (Jun 23, 6:00 AM)
Low63 °F (Jun 27, 6:00 AM)55% (Jul 1, 10:00 AM)29.83 "Hg (Jul 4, 2:00 AM)
Average71 °F79%30.15 "Hg
* Reported Jun 23 6:00 AM — Jul 8 3:00 AM, Rio de Janeiro, Weather by CustomWeather, © 2015

Note: Actual official high and low records may vary slightly from our data, if they occured in-between our weather recording intervals... More about our weather records

Advertising

Rio de Janeiro weather history for previous 24 hours

 ConditionsComfort  
Time TempWeatherWind HumidityBarometerVisibility
3:00 AM
Wed, Jul 8
68 °FClear.5 mph88%29.98 "Hg10 mi
2:00 AM68 °FClear.3 mph88%30.01 "Hg10 mi
1:00 AM70 °FPassing clouds.2 mph88%30.01 "HgN/A
12:00 AM70 °FPassing clouds.3 mph88%30.04 "HgN/A
11:00 PM
Tue, Jul 7
70 °FPassing clouds.1 mph88%30.04 "HgN/A
10:00 PM72 °FPartly cloudy.5 mph83%30.04 "HgN/A
9:00 PM73 °FPartly cloudy.No wind74%30.04 "HgN/A
8:00 PM73 °FPartly cloudy.No wind74%30.04 "HgN/A
7:00 PM73 °FClear.8 mph78%30.04 "Hg10 mi
6:00 PM73 °FClear.6 mph83%30.01 "Hg10 mi
5:00 PM73 °FPartly cloudy.5 mph83%30.01 "HgN/A
4:00 PM75 °FPartly sunny.7 mph74%30.01 "HgN/A
3:00 PM77 °FPartly sunny.8 mph69%30.01 "HgN/A
2:00 PM77 °FPassing clouds.7 mph69%30.01 "HgN/A
1:00 PM75 °FScattered clouds.10 mph69%30.04 "HgN/A
12:00 PM73 °FScattered clouds.3 mph78%30.07 "HgN/A
11:00 AM72 °FSunny.1 mph78%30.09 "Hg10 mi
10:00 AM72 °FSunny.3 mph73%30.12 "Hg10 mi
9:00 AM68 °FPartly sunny.7 mph83%30.09 "HgN/A
8:00 AM68 °FPartly sunny.2 mph83%30.09 "HgN/A
7:00 AM66 °FPartly sunny.5 mph83%30.09 "HgN/A
6:00 AM66 °FPartly sunny.6 mph88%30.09 "HgN/A
5:00 AM66 °FPassing clouds.3 mph83%30.09 "HgN/A
4:00 AM68 °FPassing clouds.3 mph78%30.09 "HgN/A
Weather by CustomWeather, © 2015

See weather overviewHow to use our weather pages